Location: *
(53.4003°S, 165.3236°W)
Time: 09:58:47
(UTC+00:00)

Daily predictions for brighter satellites

Satellite Brightness Start Highest point End
(mag) Time Altitude Azimuth Time Altitude Azimuth Time Altitude Azimuth
Cosmos 1461 2.8 12:01:11 10° SW 12:05:24 79° NW 12:09:46 10° NE
Cosmos 1898 Rocket 3.6 12:01:29 17° NNW 12:05:43 88° WSW 12:11:09 10° SSE
Cosmos 2322 3.7 12:00:24 10° SW 12:06:11 72° WNW 12:11:55 10° NNE
Cosmos 1455 2.9 12:06:46 17° NW 12:09:16 40° WSW 12:12:46 10° S
SL-8 R/B 3.9 12:09:24 10° WNW 12:14:05 48° N 12:18:45 10° ENE
USA 307 1.1 12:12:36 10° W 12:14:56 87° NNW 12:17:08 10° ENE
Cosmos 2219 Rocket 2.6 12:09:41 10° SW 12:15:02 45° WNW 12:19:40 13° N
Cosmos 2360 Rocket 3.5 12:11:40 10° SW 12:16:12 25° WNW 12:19:37 15° NNW
Cosmos 2082 Rocket 4.5 12:13:19 10° W 12:17:42 22° SSW 12:22:07 10° SSE
Cosmos 1242 Rocket 2.2 12:14:50 10° SSW 12:18:10 73° WNW 12:20:37 17° N
ATLAS 5 CENTAUR R/B 2.1 12:13:03 10° SW 12:19:08 62° NW 12:23:59 10° NNE
Cosmos 2227 Rocket 4.5 12:18:05 10° NE 12:20:51 14° E 12:23:37 10° ESE
SL-27 R/B 2.3 12:20:59 19° NW 12:23:06 68° WSW 12:26:17 10° SSE
Cosmos 1680 Rocket 4.1 12:19:28 10° SW 12:24:29 41° WNW 12:28:41 14° N
Cosmos 1441 Rocket 3.2 12:22:22 17° NNW 12:25:15 80° WSW 12:29:06 10° SSE
Helios 1A Rocket 2.8 12:21:44 10° SSE 12:25:44 85° ENE 12:28:51 16° NNW
Cosmos 2151 Rocket 3.8 12:22:14 16° NNW 12:25:51 70° WSW 12:30:29 10° S
Thor Agena Rocket 4.2 12:23:26 10° NE 12:28:32 57° ESE 12:33:46 10° S
Cosmos 2100 Rocket 4.3 12:23:14 10° SSW 12:29:17 54° W 12:34:44 13° NNW
Cosmos 2084 4.0 12:25:04 10° WNW 12:29:43 67° SW 12:34:33 10° SE
Cosmos 1346 Rocket 3.2 12:27:44 13° N 12:31:04 57° E 12:34:59 10° SSE
NOSS 0 Rocket 3.9 12:24:48 10° SW 12:31:05 83° WNW 12:37:20 10° NNE
Resurs 1-4 Rocket 2.8 12:27:37 15° NNW 12:31:44 40° W 12:36:46 10° SSW
USA 306 2.3 12:28:41 10° WSW 12:32:05 67° NNW 12:35:46 10° ENE
ALOS 2.6 12:31:36 10° NNE 12:36:16 70° ESE 12:41:00 10° S
Cosmos 1459 Rocket 4.4 12:30:56 10° SSW 12:37:10 53° W 12:42:52 12° NNW
Cosmos 2322 Rocket 4.1 12:38:32 10° WSW 12:40:46 12° W 12:43:01 10° WNW
MSX 4.4 12:36:05 13° NNW 12:40:54 42° W 12:46:25 10° SSW
Cosmos 1725 Rocket 4.1 12:34:31 10° SSW 12:40:55 72° W 12:47:14 10° N
Cosmos 1048 Rocket 4.1 12:36:02 10° SSW 12:41:30 89° ESE 12:46:50 10° NNE
Cosmos 1802 Rocket 4.3 12:40:01 10° SSW 12:46:15 56° W 12:52:15 10° NNW
SL-16 R/B 3.8 12:42:42 10° SSW 12:48:06 39° SE 12:53:26 10° ENE
AQUA 4.2 12:44:52 12° N 12:49:12 48° W 12:53:53 10° SSW
FENGYUN 3A 3.8 12:43:56 10° N 12:49:19 65° WNW 12:54:47 10° SSW
Cosmos 292 Rocket 3.8 12:45:32 13° NNW 12:49:52 86° WSW 12:54:47 10° SSE
IRS-1D 4.3 12:47:48 10° NE 12:53:05 59° ESE 12:58:26 10° S
ALOS 2 4.3 12:52:22 10° S 12:55:58 24° WSW 12:59:32 10° WNW
FAST Rocket 4.2 12:53:07 10° S 12:56:33 82° E 12:59:15 10° NNE
Cosmos 2084 Rocket 3.7 12:52:49 10° SW 12:57:33 63° NW 13:02:16 10° NNE
SL-24 R/B - RUBIN 2 4.4 12:53:57 12° NNW 12:58:50 49° NE 13:03:29 10° SE
Cosmos 2297 Rocket 3.0 13:01:30 10° N 13:06:55 47° ENE 13:12:22 10° SE
Cosmos 1980 3.7 13:02:08 10° SW 13:07:49 71° WNW 13:13:28 10° NNE
PAYLOAD A 4.5 13:03:28 10° NNE 13:08:08 59° ESE 13:12:57 10° S
Cosmos 1892 Rocket 3.8 13:04:18 10° SSW 13:08:44 60° W 13:13:10 10° N
Okean 1 Rocket 3.7 13:05:24 11° NNW 13:09:33 46° WSW 13:13:54 10° S
USA 32 4.1 13:08:58 10° N 13:14:16 87° E 13:19:38 10° S
Cosmos 494 Rocket 4.4 13:11:48 10° SW 13:16:46 43° WNW 13:21:37 10° N
ISS -2.8 13:13:50 10° W 13:16:50 28° NNW 13:19:49 10° NNE
Cosmos 1125 Rocket 4.2 13:12:36 10° N 13:17:40 50° ENE 13:22:46 10° SE
Cosmos 2061 Rocket 4.4 13:14:07 10° SSW 13:20:08 49° W 13:26:06 10° NNW
CZ-4 R/B 4.2 13:16:15 10° N 13:20:46 47° W 13:25:24 10° SSW
IDEFIX/ARIANE 42P 4.3 13:18:35 10° NW 13:22:10 18° W 13:25:46 10° SW
COSMOS 2428 3.7 13:17:35 10° SW 13:22:21 28° WNW 13:27:06 10° NNW
YAOGAN 6 3.5 13:20:06 10° NNE 13:23:25 49° ESE 13:26:48 10° S
CZ-2D R/B 3.8 13:20:53 10° NW 13:24:41 19° W 13:28:31 10° SW
USA 305 1.4 13:24:23 10° W 13:26:12 34° NNW 13:27:54 10° NE
METEOR-M 4.2 13:21:25 10° NNE 13:26:49 79° WNW 13:32:18 10° SSW
Envisat 3.1 13:21:56 10° NNE 13:27:04 86° ESE 13:32:16 10° SSW
ATLAS 2AS CENTAUR R/B 4.4 13:21:10 10° SW 13:27:44 39° SSE 13:34:35 10° E
Lacrosse 4 Rocket 3.8 13:25:28 10° SSW 13:29:06 29° SE 13:32:46 10° E
ADEOS II 3.4 13:25:13 10° NW 13:29:24 23° W 13:33:39 10° SW
CZ-2C R/B 3.7 13:25:16 10° N 13:30:52 48° W 13:36:35 10° SSW
Cosmos 2237 Rocket 2.4 13:26:01 10° SW 13:31:37 53° WNW 13:37:09 10° N
COBE Rocket 3.9 13:28:10 10° N 13:32:54 75° W 13:37:47 10° SSW
CZ-2C R/B 2.5 13:31:13 10° NNE 13:36:16 78° WNW 13:41:14 10° SSW
